sat.trackr.live / text

‹ back to catalog

STARLINK-30614

NORAD 58098 · 2023-161B

PAYLOAD ACTIVE UNKNOWN

§ Identity

Operator
Country
US
Launch date
2023-10-21
Launch site
AFWTR
Launch vehicle
Mass (kg)
RCS (m²)

Purposes: comms

External: N2YO · Heavens-Above · Gunter

§ Orbital elements

Epoch: 2026-09-20T22:12:59.737824Z

Period
93.85 min
Inclination
53.1636°
Eccentricity
0.0001189
Mean motion
15.34389410 rev/d
Perigee alt
461.9 km
Apogee alt
463.5 km
Semi-major
6,840.9 km
B*
2.8340e-5
RAAN
335.8123°
Arg perigee
85.4805°
Mean anomaly
274.6333°
Rev number
16,435

§ Raw data

STARLINK-306141 58098U 23161B   26263.92569141  .00000581  00000+0  28340-4 0  99932 58098  53.1636 335.8123 0001189  85.4805 274.6333 15.34389410164355

JSON: /api/v1/satellites/58098 · /tle

For live sub-satellite position, see the globe view (requires WebGL).

§ Visibility from observer

Set your observer location to see the next 7 days of passes ≥ 10°. The values pass through the URL so the page stays shareable.

No JS? Fill the form by hand. The geolocation button needs JavaScript.